owner,sensor,date,latitude,longitude,sea_surface_height_above_sea_level,qcFlag 
COMPS,ioos:station:USF.COMPS:SHP:1,2009-12-01T00:00:00Z,30.0600,-84.2910,0.088,1111122 
COMPS,ioos:station:USF.COMPS:SHP:1,2009-12-01T00:06:00Z,30.0600,-84.2910,0.09,1111122 
COMPS,ioos:station:USF.COMPS:SHP:1,2009-12-01T00:12:00Z,30.0600,-84.2910,0.103,1111122 
COMPS,ioos:station:USF.COMPS:SHP:1,2009-12-01T00:18:00Z,30.0600,-84.2910,0.111,1111122 
COMPS,ioos:station:USF.COMPS:SHP:1,2009-12-01T00:24:00Z,30.0600,-84.2910,0.123,1111122 
COMPS,ioos:station:USF.COMPS:SHP:1,2009-12-01T00:30:00Z,30.0600,-84.2910,0.144,1111122 
COMPS,ioos:station:USF.COMPS:SHP:1,2009-12-01T00:36:00Z,30.0600,-84.2910,0.158,1111122 
COMPS,ioos:station:USF.COMPS:SHP:1,2009-12-01T00:42:00Z,30.0600,-84.2910,0.167,1111122 
COMPS,ioos:station:USF.COMPS:SHP:1,2009-12-01T00:48:00Z,30.0600,-84.2910,0.184,1111122 
COMPS,ioos:station:USF.COMPS:SHP:1,2009-12-01T00:54:00Z,30.0600,-84.2910,0.192,1111122 
COMPS,ioos:station:USF.COMPS:SHP:1,2009-12-01T01:00:00Z,30.0600,-84.2910,0.195,1111122 
COMPS,ioos:station:USF.COMPS:SHP:1,2009-12-01T01:06:00Z,30.0600,-84.2910,0.202,1111122 
COMPS,ioos:station:USF.COMPS:SHP:1,2009-12-01T01:12:00Z,30.0600,-84.2910,0.225,1111122 
COMPS,ioos:station:USF.COMPS:SHP:1,2009-12-01T01:18:00Z,30.0600,-84.2910,0.254,1111122 
COMPS,ioos:station:USF.COMPS:SHP:1,2009-12-01T01:24:00Z,30.0600,-84.2910,0.266,1111122 
COMPS,ioos:station:USF.COMPS:SHP:1,2009-12-01T01:30:00Z,30.0600,-84.2910,0.27,1111122 
COMPS,ioos:station:USF.COMPS:SHP:1,2009-12-01T01:36:00Z,30.0600,-84.2910,0.291,1111122 
COMPS,ioos:station:USF.COMPS:SHP:1,2009-12-01T01:42:00Z,30.0600,-84.2910,0.326,1111122 
COMPS,ioos:station:USF.COMPS:SHP:1,2009-12-01T01:48:00Z,30.0600,-84.2910,0.345,1111122 
COMPS,ioos:station:USF.COMPS:SHP:1,2009-12-01T01:54:00Z,30.0600,-84.2910,0.347,1111122 
COMPS,ioos:station:USF.COMPS:SHP:1,2009-12-01T02:00:00Z,30.0600,-84.2910,0.354,1111122 
COMPS,ioos:station:USF.COMPS:SHP:1,2009-12-01T02:06:00Z,30.0600,-84.2910,0.371,1111122 
COMPS,ioos:station:USF.COMPS:SHP:1,2009-12-01T02:12:00Z,30.0600,-84.2910,0.397,1111122 
COMPS,ioos:station:USF.COMPS:SHP:1,2009-12-01T02:18:00Z,30.0600,-84.2910,0.42,1111122 
COMPS,ioos:station:USF.COMPS:SHP:1,2009-12-01T02:24:00Z,30.0600,-84.2910,0.44,1111122 
COMPS,ioos:station:USF.COMPS:SHP:1,2009-12-01T02:30:00Z,30.0600,-84.2910,0.464,1111122 
COMPS,ioos:station:USF.COMPS:SHP:1,2009-12-01T02:36:00Z,30.0600,-84.2910,0.475,1111122 
COMPS,ioos:station:USF.COMPS:SHP:1,2009-12-01T02:42:00Z,30.0600,-84.2910,0.483,1111122 
COMPS,ioos:station:USF.COMPS:SHP:1,2009-12-01T02:48:00Z,30.0600,-84.2910,0.513,1111122 
COMPS,ioos:station:USF.COMPS:SHP:1,2009-12-01T02:54:00Z,30.0600,-84.2910,0.534,1111122 
COMPS,ioos:station:USF.COMPS:SHP:1,2009-12-01T03:00:00Z,30.0600,-84.2910,0.538,1111122 
COMPS,ioos:station:USF.COMPS:SHP:1,2009-12-01T03:06:00Z,30.0600,-84.2910,0.546,1111122 
COMPS,ioos:station:USF.COMPS:SHP:1,2009-12-01T03:12:00Z,30.0600,-84.2910,0.574,1111122 
COMPS,ioos:station:USF.COMPS:SHP:1,2009-12-01T03:18:00Z,30.0600,-84.2910,0.589,1111122 
COMPS,ioos:station:USF.COMPS:SHP:1,2009-12-01T03:24:00Z,30.0600,-84.2910,0.595,1111122 
COMPS,ioos:station:USF.COMPS:SHP:1,2009-12-01T03:30:00Z,30.0600,-84.2910,0.603,1111122 
COMPS,ioos:station:USF.COMPS:SHP:1,2009-12-01T03:36:00Z,30.0600,-84.2910,0.606,1111122 
COMPS,ioos:station:USF.COMPS:SHP:1,2009-12-01T03:42:00Z,30.0600,-84.2910,0.613,1111122 
COMPS,ioos:station:USF.COMPS:SHP:1,2009-12-01T03:48:00Z,30.0600,-84.2910,0.641,1111122 
COMPS,ioos:station:USF.COMPS:SHP:1,2009-12-01T03:54:00Z,30.0600,-84.2910,0.669,1111122 
COMPS,ioos:station:USF.COMPS:SHP:1,2009-12-01T04:00:00Z,30.0600,-84.2910,0.664,1111122 
COMPS,ioos:station:USF.COMPS:SHP:1,2009-12-01T04:06:00Z,30.0600,-84.2910,0.66,1111122 
COMPS,ioos:station:USF.COMPS:SHP:1,2009-12-01T04:12:00Z,30.0600,-84.2910,0.678,1111122 
COMPS,ioos:station:USF.COMPS:SHP:1,2009-12-01T04:18:00Z,30.0600,-84.2910,0.69,1111122 
COMPS,ioos:station:USF.COMPS:SHP:1,2009-12-01T04:24:00Z,30.0600,-84.2910,0.698,1111122 
COMPS,ioos:station:USF.COMPS:SHP:1,2009-12-01T04:30:00Z,30.0600,-84.2910,0.71,1111122 
COMPS,ioos:station:USF.COMPS:SHP:1,2009-12-01T04:36:00Z,30.0600,-84.2910,0.707,1111122 
COMPS,ioos:station:USF.COMPS:SHP:1,2009-12-01T04:42:00Z,30.0600,-84.2910,0.705,1111122 
COMPS,ioos:station:USF.COMPS:SHP:1,2009-12-01T04:48:00Z,30.0600,-84.2910,0.711,1111122 
COMPS,ioos:station:USF.COMPS:SHP:1,2009-12-01T04:54:00Z,30.0600,-84.2910,0.713,1111122 
COMPS,ioos:station:USF.COMPS:SHP:1,2009-12-01T05:00:00Z,30.0600,-84.2910,0.72,1111122 
COMPS,ioos:station:USF.COMPS:SHP:1,2009-12-01T05:06:00Z,30.0600,-84.2910,0.723,1111122 
COMPS,ioos:station:USF.COMPS:SHP:1,2009-12-01T05:12:00Z,30.0600,-84.2910,0.718,1111122 
COMPS,ioos:station:USF.COMPS:SHP:1,2009-12-01T05:18:00Z,30.0600,-84.2910,0.714,1111122 
COMPS,ioos:station:USF.COMPS:SHP:1,2009-12-01T05:24:00Z,30.0600,-84.2910,0.715,1111122 
COMPS,ioos:station:USF.COMPS:SHP:1,2009-12-01T05:30:00Z,30.0600,-84.2910,0.707,1111122 
COMPS,ioos:station:USF.COMPS:SHP:1,2009-12-01T05:36:00Z,30.0600,-84.2910,0.702,1111122 
COMPS,ioos:station:USF.COMPS:SHP:1,2009-12-01T05:42:00Z,30.0600,-84.2910,0.704,1111122 
COMPS,ioos:station:USF.COMPS:SHP:1,2009-12-01T05:48:00Z,30.0600,-84.2910,0.698,1111122 
COMPS,ioos:station:USF.COMPS:SHP:1,2009-12-01T05:54:00Z,30.0600,-84.2910,0.681,1111122 
COMPS,ioos:station:USF.COMPS:SHP:1,2009-12-01T06:00:00Z,30.0600,-84.2910,0.675,1111122 
COMPS,ioos:station:USF.COMPS:SHP:1,2009-12-01T06:06:00Z,30.0600,-84.2910,0.676,1111122 
COMPS,ioos:station:USF.COMPS:SHP:1,2009-12-01T06:12:00Z,30.0600,-84.2910,0.658,1111122 
COMPS,ioos:station:USF.COMPS:SHP:1,2009-12-01T06:18:00Z,30.0600,-84.2910,0.63,1111122 
COMPS,ioos:station:USF.COMPS:SHP:1,2009-12-01T06:24:00Z,30.0600,-84.2910,0.61,1111122 
COMPS,ioos:station:USF.COMPS:SHP:1,2009-12-01T06:30:00Z,30.0600,-84.2910,0.605,1111122 
COMPS,ioos:station:USF.COMPS:SHP:1,2009-12-01T06:36:00Z,30.0600,-84.2910,0.597,1111122 
COMPS,ioos:station:USF.COMPS:SHP:1,2009-12-01T06:42:00Z,30.0600,-84.2910,0.575,1111122 
COMPS,ioos:station:USF.COMPS:SHP:1,2009-12-01T06:48:00Z,30.0600,-84.2910,0.551,1111122 
COMPS,ioos:station:USF.COMPS:SHP:1,2009-12-01T06:54:00Z,30.0600,-84.2910,0.532,1111122 
COMPS,ioos:station:USF.COMPS:SHP:1,2009-12-01T07:00:00Z,30.0600,-84.2910,0.511,1111122 
COMPS,ioos:station:USF.COMPS:SHP:1,2009-12-01T07:06:00Z,30.0600,-84.2910,0.484,1111122 
COMPS,ioos:station:USF.COMPS:SHP:1,2009-12-01T07:12:00Z,30.0600,-84.2910,0.466,1111122 
COMPS,ioos:station:USF.COMPS:SHP:1,2009-12-01T07:18:00Z,30.0600,-84.2910,0.439,1111122 
COMPS,ioos:station:USF.COMPS:SHP:1,2009-12-01T07:24:00Z,30.0600,-84.2910,0.403,1111122 
COMPS,ioos:station:USF.COMPS:SHP:1,2009-12-01T07:30:00Z,30.0600,-84.2910,0.372,1111122 
COMPS,ioos:station:USF.COMPS:SHP:1,2009-12-01T07:36:00Z,30.0600,-84.2910,0.347,1111122 
COMPS,ioos:station:USF.COMPS:SHP:1,2009-12-01T07:42:00Z,30.0600,-84.2910,0.319,1111122 
COMPS,ioos:station:USF.COMPS:SHP:1,2009-12-01T07:48:00Z,30.0600,-84.2910,0.287,1111122 
COMPS,ioos:station:USF.COMPS:SHP:1,2009-12-01T07:54:00Z,30.0600,-84.2910,0.256,1111122 
COMPS,ioos:station:USF.COMPS:SHP:1,2009-12-01T08:00:00Z,30.0600,-84.2910,0.231,1111122 
COMPS,ioos:station:USF.COMPS:SHP:1,2009-12-01T08:06:00Z,30.0600,-84.2910,0.206,1111122 
COMPS,ioos:station:USF.COMPS:SHP:1,2009-12-01T08:12:00Z,30.0600,-84.2910,0.172,1111122 
COMPS,ioos:station:USF.COMPS:SHP:1,2009-12-01T08:18:00Z,30.0600,-84.2910,0.136,1111122 
COMPS,ioos:station:USF.COMPS:SHP:1,2009-12-01T08:24:00Z,30.0600,-84.2910,0.111,1111122 
COMPS,ioos:station:USF.COMPS:SHP:1,2009-12-01T08:30:00Z,30.0600,-84.2910,0.084,1111122 
COMPS,ioos:station:USF.COMPS:SHP:1,2009-12-01T08:36:00Z,30.0600,-84.2910,0.05,1111122 
COMPS,ioos:station:USF.COMPS:SHP:1,2009-12-01T08:42:00Z,30.0600,-84.2910,0.017,1111122 
COMPS,ioos:station:USF.COMPS:SHP:1,2009-12-01T08:48:00Z,30.0600,-84.2910,-0.01,1111122 
COMPS,ioos:station:USF.COMPS:SHP:1,2009-12-01T08:54:00Z,30.0600,-84.2910,-0.039,1111122 
COMPS,ioos:station:USF.COMPS:SHP:1,2009-12-01T09:00:00Z,30.0600,-84.2910,-0.072,1111122 
COMPS,ioos:station:USF.COMPS:SHP:1,2009-12-01T09:06:00Z,30.0600,-84.2910,-0.099,1111122 
COMPS,ioos:station:USF.COMPS:SHP:1,2009-12-01T09:12:00Z,30.0600,-84.2910,-0.134,1111122 
COMPS,ioos:station:USF.COMPS:SHP:1,2009-12-01T09:18:00Z,30.0600,-84.2910,-0.166,1111122 
COMPS,ioos:station:USF.COMPS:SHP:1,2009-12-01T09:24:00Z,30.0600,-84.2910,-0.194,1111122 
COMPS,ioos:station:USF.COMPS:SHP:1,2009-12-01T09:30:00Z,30.0600,-84.2910,-0.223,1111122 
COMPS,ioos:station:USF.COMPS:SHP:1,2009-12-01T09:36:00Z,30.0600,-84.2910,-0.251,1111122 
COMPS,ioos:station:USF.COMPS:SHP:1,2009-12-01T09:42:00Z,30.0600,-84.2910,-0.277,1111122 
COMPS,ioos:station:USF.COMPS:SHP:1,2009-12-01T09:48:00Z,30.0600,-84.2910,-0.302,1111122 
COMPS,ioos:station:USF.COMPS:SHP:1,2009-12-01T09:54:00Z,30.0600,-84.2910,-0.323,1111122 
COMPS,ioos:station:USF.COMPS:SHP:1,2009-12-01T10:00:00Z,30.0600,-84.2910,-0.343,1111122 
COMPS,ioos:station:USF.COMPS:SHP:1,2009-12-01T10:06:00Z,30.0600,-84.2910,-0.364,1111122 
COMPS,ioos:station:USF.COMPS:SHP:1,2009-12-01T10:12:00Z,30.0600,-84.2910,-0.387,1111122 
COMPS,ioos:station:USF.COMPS:SHP:1,2009-12-01T10:18:00Z,30.0600,-84.2910,-0.408,1111122 
COMPS,ioos:station:USF.COMPS:SHP:1,2009-12-01T10:24:00Z,30.0600,-84.2910,-0.43,1111122 
COMPS,ioos:station:USF.COMPS:SHP:1,2009-12-01T10:30:00Z,30.0600,-84.2910,-0.452,1111122 
COMPS,ioos:station:USF.COMPS:SHP:1,2009-12-01T10:36:00Z,30.0600,-84.2910,-0.477,1111122 
COMPS,ioos:station:USF.COMPS:SHP:1,2009-12-01T10:42:00Z,30.0600,-84.2910,-0.499,1111122 
COMPS,ioos:station:USF.COMPS:SHP:1,2009-12-01T10:48:00Z,30.0600,-84.2910,-0.52,1111122 
COMPS,ioos:station:USF.COMPS:SHP:1,2009-12-01T10:54:00Z,30.0600,-84.2910,-0.542,1111122 
COMPS,ioos:station:USF.COMPS:SHP:1,2009-12-01T11:00:00Z,30.0600,-84.2910,-0.564,1111122 
COMPS,ioos:station:USF.COMPS:SHP:1,2009-12-01T11:06:00Z,30.0600,-84.2910,-0.585,1111122 
COMPS,ioos:station:USF.COMPS:SHP:1,2009-12-01T11:12:00Z,30.0600,-84.2910,-0.607,1111122 
COMPS,ioos:station:USF.COMPS:SHP:1,2009-12-01T11:18:00Z,30.0600,-84.2910,-0.629,1111122 
COMPS,ioos:station:USF.COMPS:SHP:1,2009-12-01T11:24:00Z,30.0600,-84.2910,-0.651,1111122 
COMPS,ioos:station:USF.COMPS:SHP:1,2009-12-01T11:30:00Z,30.0600,-84.2910,-0.673,1111122 
COMPS,ioos:station:USF.COMPS:SHP:1,2009-12-01T11:36:00Z,30.0600,-84.2910,-0.694,1111122 
COMPS,ioos:station:USF.COMPS:SHP:1,2009-12-01T11:42:00Z,30.0600,-84.2910,-0.714,1111122 
COMPS,ioos:station:USF.COMPS:SHP:1,2009-12-01T11:48:00Z,30.0600,-84.2910,-0.735,1111122 
COMPS,ioos:station:USF.COMPS:SHP:1,2009-12-01T11:54:00Z,30.0600,-84.2910,-0.755,1111122 
COMPS,ioos:station:USF.COMPS:SHP:1,2009-12-01T12:00:00Z,30.0600,-84.2910,-0.773,1111122 
COMPS,ioos:station:USF.COMPS:SHP:1,2009-12-01T12:06:00Z,30.0600,-84.2910,-0.788,1111122 
COMPS,ioos:station:USF.COMPS:SHP:1,2009-12-01T12:12:00Z,30.0600,-84.2910,-0.801,1111122 
COMPS,ioos:station:USF.COMPS:SHP:1,2009-12-01T12:18:00Z,30.0600,-84.2910,-0.815,1111122 
COMPS,ioos:station:USF.COMPS:SHP:1,2009-12-01T12:24:00Z,30.0600,-84.2910,-0.807,1111122 
COMPS,ioos:station:USF.COMPS:SHP:1,2009-12-01T12:30:00Z,30.0600,-84.2910,-0.801,1111122 
COMPS,ioos:station:USF.COMPS:SHP:1,2009-12-01T12:36:00Z,30.0600,-84.2910,-0.801,1111122 
COMPS,ioos:station:USF.COMPS:SHP:1,2009-12-01T12:42:00Z,30.0600,-84.2910,-0.802,1111122 
COMPS,ioos:station:USF.COMPS:SHP:1,2009-12-01T12:48:00Z,30.0600,-84.2910,-0.802,1111122 
COMPS,ioos:station:USF.COMPS:SHP:1,2009-12-01T12:54:00Z,30.0600,-84.2910,-0.802,1111122 
COMPS,ioos:station:USF.COMPS:SHP:1,2009-12-01T13:00:00Z,30.0600,-84.2910,-0.802,1111122 
COMPS,ioos:station:USF.COMPS:SHP:1,2009-12-01T13:06:00Z,30.0600,-84.2910,-0.802,1111122 
COMPS,ioos:station:USF.COMPS:SHP:1,2009-12-01T13:12:00Z,30.0600,-84.2910,-0.806,1111122 
COMPS,ioos:station:USF.COMPS:SHP:1,2009-12-01T13:18:00Z,30.0600,-84.2910,-0.815,1111122 
COMPS,ioos:station:USF.COMPS:SHP:1,2009-12-01T13:24:00Z,30.0600,-84.2910,-0.803,1111122 
COMPS,ioos:station:USF.COMPS:SHP:1,2009-12-01T13:30:00Z,30.0600,-84.2910,-0.788,1111122 
COMPS,ioos:station:USF.COMPS:SHP:1,2009-12-01T13:36:00Z,30.0600,-84.2910,-0.765,1111122 
COMPS,ioos:station:USF.COMPS:SHP:1,2009-12-01T13:42:00Z,30.0600,-84.2910,-0.74,1111122 
COMPS,ioos:station:USF.COMPS:SHP:1,2009-12-01T13:48:00Z,30.0600,-84.2910,-0.719,1111122 
COMPS,ioos:station:USF.COMPS:SHP:1,2009-12-01T13:54:00Z,30.0600,-84.2910,-0.706,1111122 
COMPS,ioos:station:USF.COMPS:SHP:1,2009-12-01T14:00:00Z,30.0600,-84.2910,-0.695,1111122 
COMPS,ioos:station:USF.COMPS:SHP:1,2009-12-01T14:06:00Z,30.0600,-84.2910,-0.679,1111122 
COMPS,ioos:station:USF.COMPS:SHP:1,2009-12-01T14:12:00Z,30.0600,-84.2910,-0.662,1111122 
COMPS,ioos:station:USF.COMPS:SHP:1,2009-12-01T14:18:00Z,30.0600,-84.2910,-0.648,1111122 
COMPS,ioos:station:USF.COMPS:SHP:1,2009-12-01T14:24:00Z,30.0600,-84.2910,-0.631,1111122 
COMPS,ioos:station:USF.COMPS:SHP:1,2009-12-01T14:30:00Z,30.0600,-84.2910,-0.605,1111122 
COMPS,ioos:station:USF.COMPS:SHP:1,2009-12-01T14:36:00Z,30.0600,-84.2910,-0.578,1111122 
COMPS,ioos:station:USF.COMPS:SHP:1,2009-12-01T14:42:00Z,30.0600,-84.2910,-0.551,1111122 
COMPS,ioos:station:USF.COMPS:SHP:1,2009-12-01T14:48:00Z,30.0600,-84.2910,-0.528,1111122 
COMPS,ioos:station:USF.COMPS:SHP:1,2009-12-01T14:54:00Z,30.0600,-84.2910,-0.505,1111122 
COMPS,ioos:station:USF.COMPS:SHP:1,2009-12-01T15:00:00Z,30.0600,-84.2910,-0.472,1111122 
COMPS,ioos:station:USF.COMPS:SHP:1,2009-12-01T15:06:00Z,30.0600,-84.2910,-0.441,1111122 
COMPS,ioos:station:USF.COMPS:SHP:1,2009-12-01T15:12:00Z,30.0600,-84.2910,-0.408,1111122 
COMPS,ioos:station:USF.COMPS:SHP:1,2009-12-01T15:18:00Z,30.0600,-84.2910,-0.37,1111122 
COMPS,ioos:station:USF.COMPS:SHP:1,2009-12-01T15:24:00Z,30.0600,-84.2910,-0.327,1111122 
COMPS,ioos:station:USF.COMPS:SHP:1,2009-12-01T15:30:00Z,30.0600,-84.2910,-0.285,1111122 
COMPS,ioos:station:USF.COMPS:SHP:1,2009-12-01T15:36:00Z,30.0600,-84.2910,-0.251,1111122 
COMPS,ioos:station:USF.COMPS:SHP:1,2009-12-01T15:42:00Z,30.0600,-84.2910,-0.226,1111122 
COMPS,ioos:station:USF.COMPS:SHP:1,2009-12-01T15:48:00Z,30.0600,-84.2910,-0.201,1111122 
COMPS,ioos:station:USF.COMPS:SHP:1,2009-12-01T15:54:00Z,30.0600,-84.2910,-0.171,1111122 
COMPS,ioos:station:USF.COMPS:SHP:1,2009-12-01T16:00:00Z,30.0600,-84.2910,-0.136,1111122 
COMPS,ioos:station:USF.COMPS:SHP:1,2009-12-01T16:06:00Z,30.0600,-84.2910,-0.1,1111122 
COMPS,ioos:station:USF.COMPS:SHP:1,2009-12-01T16:12:00Z,30.0600,-84.2910,-0.065,1111122 
COMPS,ioos:station:USF.COMPS:SHP:1,2009-12-01T16:18:00Z,30.0600,-84.2910,-0.033,1111122 
COMPS,ioos:station:USF.COMPS:SHP:1,2009-12-01T16:24:00Z,30.0600,-84.2910,-0.001,1111122 
COMPS,ioos:station:USF.COMPS:SHP:1,2009-12-01T16:30:00Z,30.0600,-84.2910,0.036,1111122 
COMPS,ioos:station:USF.COMPS:SHP:1,2009-12-01T16:36:00Z,30.0600,-84.2910,0.071,1111122 
COMPS,ioos:station:USF.COMPS:SHP:1,2009-12-01T16:42:00Z,30.0600,-84.2910,0.099,1111122 
COMPS,ioos:station:USF.COMPS:SHP:1,2009-12-01T16:48:00Z,30.0600,-84.2910,0.13,1111122 
COMPS,ioos:station:USF.COMPS:SHP:1,2009-12-01T16:54:00Z,30.0600,-84.2910,0.165,1111122 
COMPS,ioos:station:USF.COMPS:SHP:1,2009-12-01T17:00:00Z,30.0600,-84.2910,0.195,1111122 
COMPS,ioos:station:USF.COMPS:SHP:1,2009-12-01T17:06:00Z,30.0600,-84.2910,0.228,1111122 
COMPS,ioos:station:USF.COMPS:SHP:1,2009-12-01T17:12:00Z,30.0600,-84.2910,0.252,1111122 
COMPS,ioos:station:USF.COMPS:SHP:1,2009-12-01T17:18:00Z,30.0600,-84.2910,0.27,1111122 
COMPS,ioos:station:USF.COMPS:SHP:1,2009-12-01T17:24:00Z,30.0600,-84.2910,0.296,1111122 
COMPS,ioos:station:USF.COMPS:SHP:1,2009-12-01T17:30:00Z,30.0600,-84.2910,0.327,1111122 
COMPS,ioos:station:USF.COMPS:SHP:1,2009-12-01T17:36:00Z,30.0600,-84.2910,0.345,1111122 
COMPS,ioos:station:USF.COMPS:SHP:1,2009-12-01T17:42:00Z,30.0600,-84.2910,0.365,1111122 
COMPS,ioos:station:USF.COMPS:SHP:1,2009-12-01T17:48:00Z,30.0600,-84.2910,0.373,1111122 
COMPS,ioos:station:USF.COMPS:SHP:1,2009-12-01T17:54:00Z,30.0600,-84.2910,0.393,1111122 
COMPS,ioos:station:USF.COMPS:SHP:1,2009-12-01T18:00:00Z,30.0600,-84.2910,0.425,1111122 
COMPS,ioos:station:USF.COMPS:SHP:1,2009-12-01T18:06:00Z,30.0600,-84.2910,0.435,1111122 
COMPS,ioos:station:USF.COMPS:SHP:1,2009-12-01T18:12:00Z,30.0600,-84.2910,0.445,1111122 
COMPS,ioos:station:USF.COMPS:SHP:1,2009-12-01T18:18:00Z,30.0600,-84.2910,0.455,1111122 
COMPS,ioos:station:USF.COMPS:SHP:1,2009-12-01T18:24:00Z,30.0600,-84.2910,0.473,1111122 
COMPS,ioos:station:USF.COMPS:SHP:1,2009-12-01T18:30:00Z,30.0600,-84.2910,0.494,1111122 
COMPS,ioos:station:USF.COMPS:SHP:1,2009-12-01T18:36:00Z,30.0600,-84.2910,0.495,1111122 
COMPS,ioos:station:USF.COMPS:SHP:1,2009-12-01T18:42:00Z,30.0600,-84.2910,0.5,1111122 
COMPS,ioos:station:USF.COMPS:SHP:1,2009-12-01T18:48:00Z,30.0600,-84.2910,0.519,1111122 
COMPS,ioos:station:USF.COMPS:SHP:1,2009-12-01T18:54:00Z,30.0600,-84.2910,0.534,1111122 
COMPS,ioos:station:USF.COMPS:SHP:1,2009-12-01T19:00:00Z,30.0600,-84.2910,0.538,1111122 
COMPS,ioos:station:USF.COMPS:SHP:1,2009-12-01T19:06:00Z,30.0600,-84.2910,0.55,1111122 
COMPS,ioos:station:USF.COMPS:SHP:1,2009-12-01T19:12:00Z,30.0600,-84.2910,0.547,1111122 
COMPS,ioos:station:USF.COMPS:SHP:1,2009-12-01T19:18:00Z,30.0600,-84.2910,0.536,1111122 
COMPS,ioos:station:USF.COMPS:SHP:1,2009-12-01T19:24:00Z,30.0600,-84.2910,0.545,1111122 
COMPS,ioos:station:USF.COMPS:SHP:1,2009-12-01T19:30:00Z,30.0600,-84.2910,0.553,1111122 
COMPS,ioos:station:USF.COMPS:SHP:1,2009-12-01T19:36:00Z,30.0600,-84.2910,0.538,1111122 
COMPS,ioos:station:USF.COMPS:SHP:1,2009-12-01T19:42:00Z,30.0600,-84.2910,0.539,1111122 
COMPS,ioos:station:USF.COMPS:SHP:1,2009-12-01T19:48:00Z,30.0600,-84.2910,0.548,1111122 
COMPS,ioos:station:USF.COMPS:SHP:1,2009-12-01T19:54:00Z,30.0600,-84.2910,0.55,1111122 
COMPS,ioos:station:USF.COMPS:SHP:1,2009-12-01T20:00:00Z,30.0600,-84.2910,0.542,1111122 
COMPS,ioos:station:USF.COMPS:SHP:1,2009-12-01T20:06:00Z,30.0600,-84.2910,0.545,1111122 
COMPS,ioos:station:USF.COMPS:SHP:1,2009-12-01T20:12:00Z,30.0600,-84.2910,0.534,1111122 
COMPS,ioos:station:USF.COMPS:SHP:1,2009-12-01T20:18:00Z,30.0600,-84.2910,0.527,1111122 
COMPS,ioos:station:USF.COMPS:SHP:1,2009-12-01T20:24:00Z,30.0600,-84.2910,0.522,1111122 
COMPS,ioos:station:USF.COMPS:SHP:1,2009-12-01T20:30:00Z,30.0600,-84.2910,0.509,1111122 
COMPS,ioos:station:USF.COMPS:SHP:1,2009-12-01T20:36:00Z,30.0600,-84.2910,0.505,1111122 
COMPS,ioos:station:USF.COMPS:SHP:1,2009-12-01T20:42:00Z,30.0600,-84.2910,0.487,1111122 
COMPS,ioos:station:USF.COMPS:SHP:1,2009-12-01T20:48:00Z,30.0600,-84.2910,0.479,1111122 
COMPS,ioos:station:USF.COMPS:SHP:1,2009-12-01T20:54:00Z,30.0600,-84.2910,0.471,1111122 
COMPS,ioos:station:USF.COMPS:SHP:1,2009-12-01T21:00:00Z,30.0600,-84.2910,0.451,1111122 
COMPS,ioos:station:USF.COMPS:SHP:1,2009-12-01T21:06:00Z,30.0600,-84.2910,0.441,1111122 
COMPS,ioos:station:USF.COMPS:SHP:1,2009-12-01T21:12:00Z,30.0600,-84.2910,0.413,1111122 
COMPS,ioos:station:USF.COMPS:SHP:1,2009-12-01T21:18:00Z,30.0600,-84.2910,0.393,1111122 
COMPS,ioos:station:USF.COMPS:SHP:1,2009-12-01T21:24:00Z,30.0600,-84.2910,0.377,1111122 
COMPS,ioos:station:USF.COMPS:SHP:1,2009-12-01T21:30:00Z,30.0600,-84.2910,0.363,1111122 
COMPS,ioos:station:USF.COMPS:SHP:1,2009-12-01T21:36:00Z,30.0600,-84.2910,0.348,1111122 
COMPS,ioos:station:USF.COMPS:SHP:1,2009-12-01T21:42:00Z,30.0600,-84.2910,0.329,1111122 
COMPS,ioos:station:USF.COMPS:SHP:1,2009-12-01T21:48:00Z,30.0600,-84.2910,0.309,1111122 
COMPS,ioos:station:USF.COMPS:SHP:1,2009-12-01T21:54:00Z,30.0600,-84.2910,0.283,1111122 
COMPS,ioos:station:USF.COMPS:SHP:1,2009-12-01T22:00:00Z,30.0600,-84.2910,0.265,1111122 
COMPS,ioos:station:USF.COMPS:SHP:1,2009-12-01T22:06:00Z,30.0600,-84.2910,0.253,1111122 
COMPS,ioos:station:USF.COMPS:SHP:1,2009-12-01T22:12:00Z,30.0600,-84.2910,0.237,1111122 
COMPS,ioos:station:USF.COMPS:SHP:1,2009-12-01T22:18:00Z,30.0600,-84.2910,0.213,1111122 
COMPS,ioos:station:USF.COMPS:SHP:1,2009-12-01T22:24:00Z,30.0600,-84.2910,0.195,1111122 
COMPS,ioos:station:USF.COMPS:SHP:1,2009-12-01T22:30:00Z,30.0600,-84.2910,0.19,1111122 
COMPS,ioos:station:USF.COMPS:SHP:1,2009-12-01T22:36:00Z,30.0600,-84.2910,0.176,1111122 
COMPS,ioos:station:USF.COMPS:SHP:1,2009-12-01T22:42:00Z,30.0600,-84.2910,0.158,1111122 
COMPS,ioos:station:USF.COMPS:SHP:1,2009-12-01T22:48:00Z,30.0600,-84.2910,0.146,1111122 
COMPS,ioos:station:USF.COMPS:SHP:1,2009-12-01T22:54:00Z,30.0600,-84.2910,0.139,1111122 
COMPS,ioos:station:USF.COMPS:SHP:1,2009-12-01T23:00:00Z,30.0600,-84.2910,0.129,1111122 
COMPS,ioos:station:USF.COMPS:SHP:1,2009-12-01T23:06:00Z,30.0600,-84.2910,0.122,1111122 
COMPS,ioos:station:USF.COMPS:SHP:1,2009-12-01T23:12:00Z,30.0600,-84.2910,0.117,1111122 
COMPS,ioos:station:USF.COMPS:SHP:1,2009-12-01T23:18:00Z,30.0600,-84.2910,0.112,1111122 
COMPS,ioos:station:USF.COMPS:SHP:1,2009-12-01T23:24:00Z,30.0600,-84.2910,0.105,1111122 
COMPS,ioos:station:USF.COMPS:SHP:1,2009-12-01T23:30:00Z,30.0600,-84.2910,0.099,1111122 
COMPS,ioos:station:USF.COMPS:SHP:1,2009-12-01T23:36:00Z,30.0600,-84.2910,0.094,1111122 
COMPS,ioos:station:USF.COMPS:SHP:1,2009-12-01T23:42:00Z,30.0600,-84.2910,0.085,1111122 
COMPS,ioos:station:USF.COMPS:SHP:1,2009-12-01T23:48:00Z,30.0600,-84.2910,0.09,1111122 
COMPS,ioos:station:USF.COMPS:SHP:1,2009-12-01T23:54:00Z,30.0600,-84.2910,0.094,1111122 
COMPS,ioos:station:USF.COMPS:SHP:1,2009-12-02T00:00:00Z,30.0600,-84.2910,0.108,1111122 
COMPS,ioos:station:USF.COMPS:SHP:1,2009-12-02T00:06:00Z,30.0600,-84.2910,0.119,1111122 
COMPS,ioos:station:USF.COMPS:SHP:1,2009-12-02T00:12:00Z,30.0600,-84.2910,0.127,1111122 
COMPS,ioos:station:USF.COMPS:SHP:1,2009-12-02T00:18:00Z,30.0600,-84.2910,0.132,1111122 
COMPS,ioos:station:USF.COMPS:SHP:1,2009-12-02T00:24:00Z,30.0600,-84.2910,0.136,1111122 
COMPS,ioos:station:USF.COMPS:SHP:1,2009-12-02T00:30:00Z,30.0600,-84.2910,0.137,1111122 
COMPS,ioos:station:USF.COMPS:SHP:1,2009-12-02T00:36:00Z,30.0600,-84.2910,0.142,1111122 
COMPS,ioos:station:USF.COMPS:SHP:1,2009-12-02T00:42:00Z,30.0600,-84.2910,0.172,1111122 
COMPS,ioos:station:USF.COMPS:SHP:1,2009-12-02T00:48:00Z,30.0600,-84.2910,0.199,1111122 
COMPS,ioos:station:USF.COMPS:SHP:1,2009-12-02T00:54:00Z,30.0600,-84.2910,0.199,1111122 
COMPS,ioos:station:USF.COMPS:SHP:1,2009-12-02T01:00:00Z,30.0600,-84.2910,0.209,1111122 
COMPS,ioos:station:USF.COMPS:SHP:1,2009-12-02T01:06:00Z,30.0600,-84.2910,0.236,1111122 
COMPS,ioos:station:USF.COMPS:SHP:1,2009-12-02T01:12:00Z,30.0600,-84.2910,0.262,1111122 
COMPS,ioos:station:USF.COMPS:SHP:1,2009-12-02T01:18:00Z,30.0600,-84.2910,0.281,1111122 
COMPS,ioos:station:USF.COMPS:SHP:1,2009-12-02T01:24:00Z,30.0600,-84.2910,0.305,1111122 
COMPS,ioos:station:USF.COMPS:SHP:1,2009-12-02T01:30:00Z,30.0600,-84.2910,0.317,1111122 
COMPS,ioos:station:USF.COMPS:SHP:1,2009-12-02T01:36:00Z,30.0600,-84.2910,0.332,1111122 
COMPS,ioos:station:USF.COMPS:SHP:1,2009-12-02T01:42:00Z,30.0600,-84.2910,0.345,1111122 
COMPS,ioos:station:USF.COMPS:SHP:1,2009-12-02T01:48:00Z,30.0600,-84.2910,0.355,1111122 
COMPS,ioos:station:USF.COMPS:SHP:1,2009-12-02T01:54:00Z,30.0600,-84.2910,0.373,1111122 
COMPS,ioos:station:USF.COMPS:SHP:1,2009-12-02T02:00:00Z,30.0600,-84.2910,0.4,1111122 
COMPS,ioos:station:USF.COMPS:SHP:1,2009-12-02T02:06:00Z,30.0600,-84.2910,0.426,1111122 
COMPS,ioos:station:USF.COMPS:SHP:1,2009-12-02T02:12:00Z,30.0600,-84.2910,0.442,1111122 
COMPS,ioos:station:USF.COMPS:SHP:1,2009-12-02T02:18:00Z,30.0600,-84.2910,0.452,1111122 
COMPS,ioos:station:USF.COMPS:SHP:1,2009-12-02T02:24:00Z,30.0600,-84.2910,0.458,1111122 
COMPS,ioos:station:USF.COMPS:SHP:1,2009-12-02T02:30:00Z,30.0600,-84.2910,0.486,1111122 
COMPS,ioos:station:USF.COMPS:SHP:1,2009-12-02T02:36:00Z,30.0600,-84.2910,0.505,1111122 
COMPS,ioos:station:USF.COMPS:SHP:1,2009-12-02T02:42:00Z,30.0600,-84.2910,0.511,1111122 
COMPS,ioos:station:USF.COMPS:SHP:1,2009-12-02T02:48:00Z,30.0600,-84.2910,0.526,1111122 
COMPS,ioos:station:USF.COMPS:SHP:1,2009-12-02T02:54:00Z,30.0600,-84.2910,0.553,1111122 
COMPS,ioos:station:USF.COMPS:SHP:1,2009-12-02T03:00:00Z,30.0600,-84.2910,0.559,1111122 